Regional Weather Roundup
Issued by NWS Charleston, SC

Current Version | Previous Version | Graphics & Text | Print | Product List | Glossary Off
Versions: 1 2 3 4 5 6 7 8 9 10 11 12 13 14 15 16 17 18 19 20 21 22 23 24 25 26 27 28 29 30 31 32 33 34 35 36 37 38 39 40 41 42 43 44 45 46 47 48 49 50

000
ASUS42 KCHS 112128
RWRCHS

REGIONAL WEATHER ROUNDUP
NATIONAL WEATHER SERVICE CHARLESTON SC
400 PM EST THU FEB 11 2016

NOTE: "FAIR" INDICATES FEW OR NO CLOUDS BELOW 12,000 FEET WITH NO
SIGNIFICANT WEATHER AND/OR OBSTRUCTIONS TO VISIBILITY.

NOT ALL STATIONS ARE QUALITY CONTROLLED BY THE NATIONAL
WEATHER SERVICE. USE DATA WITH CAUTION...ESPECIALLY
DEWPOINT OBSERVATIONS.

SCZ027-030-031-034>040-042>050-112200-
...SOUTHEAST SOUTH CAROLINA...

CITY           SKY/WX    TMP DP  RH WIND       PRES   REMARKS
N CHARLESTON   SUNNY     52  27  38 S15       30.16R
WATERFRONT PRK   N/A     47  31  53 S9        30.02S
MOUNT PLEASANT FAIR      48  30  49 S9        30.18R
JOHNS ISLAND   FAIR      50  28  43 S8        30.18R
PINOPOLIS        N/A     48  28  46 NE5       30.07F
MONCKS CORNER  FAIR      48  21  34 N6        30.16R
SUMMERVILLE    FAIR      55  28  35 CALM      30.16R
BEAUFORT MCAS  SUNNY     54  32  43 S8        30.16R
BEAUFORT ARPT  FAIR      52  30  43 SE6       30.16S
HILTON HEAD IS SUNNY     50  32  50 S9        30.16F
WALTERBORO     CLEAR     59  25  27 SW6       30.16R
ALLENDALE      FAIR      57  23  26 CALM      30.14R

...SOUTHERN MIDLANDS AND PEE DEE...

CITY           SKY/WX    TMP DP  RH WIND       PRES   REMARKS
GEORGETOWN     FAIR      50  25  37 W9        30.18R
KINGSTREE      FAIR      50  21  32 W6        30.16R
ORANGEBURG     SUNNY     54  21  27 W7        30.14S
BARNWELL       FAIR      57  27  30 CALM      30.14S
AIKEN          FAIR      52  23  32 W5        30.16R
MANNING        FAIR      50  23  34 S3        30.16R
COLUMBIA       SUNNY     55  21  26 VRB3      30.13S
SUMTER         SUNNY     52  21  29 VRB7      30.12S
FLORENCE       SUNNY     48  20  32 W6        30.16R
MYRTLE BEACH   SUNNY     46  25  42 S16       30.18S
N MYRTLE BEACH SUNNY     47  26  44 S9        30.16R

$$

GAZ063-065-086>088-099>101-113>116-118-119-134>141-150-112200-
...SOUTHEAST GEORGIA...

CITY           SKY/WX    TMP DP  RH WIND       PRES   REMARKS
SAVANNAH ARPT  SUNNY     59  31  34 E10       30.14S
HUNTER AAF     SUNNY     56  33  42 SE9       30.12S
FORT STEWART   SUNNY     65  33  31 SW9G18    30.10F
STATESBORO     SUNNY     65  21  18 SW5       30.12S
SYLVANIA       CLEAR     60  34  36 W5        30.14S
CLAXTON        FAIR      64  40  40 S3        30.11F

...CSRA...CENTRAL AND FAR SOUTHEAST GEORGIA...

CITY           SKY/WX    TMP DP  RH WIND       PRES   REMARKS
THOMSON        SUNNY     58  29  33 CALM      30.16S
AUGUSTA-BUSH   CLOUDY    56  23  27 E5        30.12F HAZE
AUGUSTA-DANIEL SUNNY     56  23  27 SW5       30.13S
SWAINSBORO     FAIR      61  32  33 NW7       30.12R
VIDALIA        SUNNY     64  36  34 SW7       30.10S
EASTMAN        FAIR      67  38  35 W6        30.12S
HAZLEHURST     FAIR      67  40  37 SW7       30.09S
ALMA           SUNNY     66  39  37 SW13G20   30.11F
WAYCROSS       SUNNY     71  43  37 SW10      30.12S
JESUP          FAIR      70  41  35 W9        30.11F
BAXLEY         FAIR      66  37  34 SW8       30.11R
BRUNSWICK      SUNNY     63  45  51 SE6       30.14F
SAINT SIMONS   SUNNY     56  46  69 SE13      30.14F

$$

SCZ027-028-034-036>038-045-046-048>050-GAZ119-141-112200-
...LAKE AND SUPPLEMENTAL COASTAL OBSERVATIONS...

STATION/POSITION TIME  TEMP    WIND        PRES    WAVE   SWELL
                       AIR SEA DIR/SP/G            HT/PER HT/PER/DIR
                 (UTC) (F)     (DEG/KT/KT) (MB)    (FT/S) (FT/S/D)
WINYAH BAY       2000   45     120/  9     1020.0F
LAKE MURRAY      2100   52     270/  3/  4 1019.6S
ACE BASIN NERRS  2000   49     170/  3     1021.0F
FORT PULASKI     2100   52 50  150/  6/  9 1021.2F
SAPELO ISLAND    2100   56     150/ 15     1020.0F

$$

ANZ835-935-AMZ111-154-330-350-352-354-370-450-454-472-112200-
...C-MAN AND BUOY OBSERVATIONS...

STATION/POSITION TIME  TEMP    WIND        PRES    WAVE   SWELL
                       AIR SEA DIR/SP/G            HT/PER HT/PER/DIR
                 (UTC) (F)     (DEG/KT/KT) (MB)    (FT/S) (FT/S/D)
BUOY 41004       2050   47 62  230/  4/  8 1022.3S   4/ 6   3/ 6
BUOY 41008       2050   53 53  170/ 16/ 17 1021.3F   1/14
FOLLY BEACH CMAN 2100   47     180/  9/ 10 1022.0R
CAPERS NEARSHORE 2008   46     180/ 12/ 14 1021.3F
FRIPP NEARSHORE  2000   49     180/ 10/ 12 1021.1F


STATION/POSITION TIME  TEMP    WIND        PRES    WAVE   SWELL
                       AIR SEA DIR/SP/G            HT/PER HT/PER/DIR
                 (UTC) (F)     (DEG/KT/KT) (MB)    (FT/S) (FT/S/D)
5E ST. MARYS GA  2051      56                N/A     2/ 3
FRYING PAN BUOY  2100   43 57  280/  8/ 14 1022.1F
BUOY 41025       2050   38 57  280/ 16/ 19 1021.8R   5/ 4   2/160/13
CAPE LOOKOUT NC  NOT AVBL
BUOY 41002       2050   54 68  300/ 19/ 25   N/A    10/ 9
BUOY 41010       2020   61 72              1024.5F
ST AUGUSTINE FL  2100   56 57  140/ 14/ 15 1023.2F


$$



USA.gov is the U.S. government's official web portal to all federal, state and local government web resources and services.